Weather History for Nantucket, MA

Change the Weather History Date:

Friday, June 14, 2013

  Actual Average Record
Temperature  
Mean Temperature 56 °F -  
Max Temperature 60 °F 66 °F 82 °F (1964)
Min Temperature 53 °F 51 °F 41 °F (1967)
Degree Days  
Heating Degree Days 9    
Growing Degree Days 6 (Base 50)    
Moisture  
Dew Point 51 °F    
Average Humidity 87    
Maximum Humidity 96    
Minimum Humidity 67    
Precipitation  
Precipitation 0.31 in - - ()
Sea Level Pressure  
Sea Level Pressure 29.61 in    
Wind  
Wind Speed 21 mph (NNE)    
Max Wind Speed 32 mph    
Max Gust Speed 43 mph    
Visibility 6 miles    
Events Rain    
Averages and records for this station are not official NWS values.
T = Trace of Precipitation, MM = Missing Value Source: NWS Daily Summary

Daily Weather History Graph

Daily Weather History Graph

Search for Another Location

Airport:

Trip Planner

Search our weather history database for the weather conditions in past years. The results will help you decide how hot, cold, wet, or windy it might be!

Date:

Astronomy

Jun. 14, 2013 Rise Set
Actual Time 5:06 AM EDT 8:14 PM EDT
Civil Twilight 4:32 AM EDT 8:48 PM EDT
Nautical Twilight 3:49 AM EDT 9:31 PM EDT
Astronomical Twilight 2:58 AM EDT 10:23 PM EDT
Moon 10:41 AM EDT (6/14) 11:45 PM EDT (6/14)
Length of Visible Light 16h 15m
Length of Day
15h 08m
Waxing Crescent, 30% of the Moon is Illuminated
Jun 14
Waxing Crescent
Jun 16
First Quarter
Jun 23
Full
Jun 30
Last Quarter
Jul 8
New

Hourly Weather History & Observations

Time (EDT) Temp. Dew Point Humidity Pressure Visibility Wind Dir Wind Speed Gust Speed Precip Events Conditions
12:53 AM 54.0 °F 52.0 °F 93% 29.54 in 9.0 mi NE 24.2 mph 39.1 mph 0.04 in Rain Light Rain
1:53 AM 54.0 °F 52.0 °F 93% 29.55 in 9.0 mi ENE 20.7 mph 28.8 mph 0.03 in Rain Light Rain
2:53 AM 54.0 °F 52.0 °F 93% 29.51 in 3.0 mi ENE 20.7 mph 28.8 mph 0.04 in Rain Light Rain
3:00 AM 53.6 °F 51.8 °F 94% 29.51 in 2.5 mi NE 17.3 mph 28.8 mph 0.01 in Rain Light Rain
3:53 AM 53.1 °F 52.0 °F 96% 29.51 in 2.0 mi NE 18.4 mph 26.5 mph 0.03 in Rain Rain
4:03 AM 53.6 °F 51.8 °F 94% 29.50 in 1.8 mi NE 21.9 mph 32.2 mph 0.01 in Rain Rain
4:08 AM 53.6 °F 51.8 °F 94% 29.49 in 3.0 mi NE 24.2 mph 32.2 mph 0.01 in Rain Light Rain
4:53 AM 53.1 °F 51.1 °F 93% 29.51 in 3.0 mi NE 23.0 mph 29.9 mph 0.03 in Rain Light Rain
5:02 AM 53.6 °F 51.8 °F 94% 29.51 in 2.5 mi NE 21.9 mph 31.1 mph 0.00 in Rain Rain
5:09 AM 53.6 °F 51.8 °F 94% 29.51 in 4.0 mi NE 21.9 mph 31.1 mph N/A Rain Rain
5:35 AM 53.6 °F 51.8 °F 94% 29.52 in 2.0 mi NE 23.0 mph 36.8 mph N/A Rain Rain
5:53 AM 53.1 °F 51.1 °F 93% 29.54 in 1.8 mi NNE 24.2 mph 36.8 mph N/A Rain Rain
6:53 AM 53.1 °F 51.1 °F 93% 29.53 in 2.5 mi NNE 32.2 mph 42.6 mph N/A Rain Light Rain
7:53 AM 53.1 °F 51.1 °F 93% 29.57 in 2.0 mi NNE 26.5 mph 42.6 mph 0.02 in Rain Light Rain
8:53 AM 53.1 °F 51.1 °F 93% 29.59 in 3.0 mi NNE 28.8 mph 39.1 mph 0.02 in Rain Light Rain
9:53 AM 53.1 °F 51.1 °F 93% 29.58 in 7.0 mi NNE 32.2 mph 42.6 mph 0.02 in Rain Light Rain
10:53 AM 53.1 °F 50.0 °F 89% 29.61 in 9.0 mi NNE 24.2 mph 40.3 mph 0.01 in Rain Light Rain
11:53 AM 54.0 °F 50.0 °F 86% 29.62 in 10.0 mi NNE 23.0 mph 35.7 mph 0.01 in   Overcast
12:53 PM 55.9 °F 50.0 °F 80% 29.65 in 9.0 mi NNE 24.2 mph 35.7 mph 0.01 in   Overcast
1:53 PM 55.9 °F 50.0 °F 80% 29.66 in 10.0 mi North 25.3 mph 33.4 mph 0.01 in   Overcast
2:53 PM 57.0 °F 50.0 °F 77% 29.66 in 10.0 mi North 25.3 mph 34.5 mph 0.01 in   Overcast
3:53 PM 57.9 °F 48.0 °F 70% 29.69 in 10.0 mi North 24.2 mph 29.9 mph N/A   Overcast
4:53 PM 57.9 °F 48.9 °F 72% 29.71 in 10.0 mi North 19.6 mph 26.5 mph 0.01 in   Overcast
5:53 PM 59.0 °F 48.0 °F 67% 29.71 in 10.0 mi North 10.4 mph - N/A   Partly Cloudy
6:53 PM 59.0 °F 48.0 °F 67% 29.72 in 10.0 mi North 6.9 mph - 0.01 in   Scattered Clouds
7:53 PM 57.9 °F 48.9 °F 72% 29.73 in 10.0 mi WNW 5.8 mph - N/A   Clear
8:53 PM 55.9 °F 50.0 °F 80% 29.75 in 10.0 mi WNW 5.8 mph - N/A   Clear
9:53 PM 54.0 °F 48.9 °F 83% 29.77 in 10.0 mi West 6.9 mph - 0.01 in   Clear
10:53 PM 53.1 °F 48.9 °F 86% 29.75 in 10.0 mi Calm Calm - N/A   Partly Cloudy
11:53 PM 55.9 °F 53.1 °F 90% 29.76 in 9.0 mi WSW 6.9 mph - N/A   Clear